#timestamp,LO_Frequency,Hit,StdDev 
1604379615.2,286047000.0,N
1604379635.0,286047002.5,N
1604379635.9,286047002.5,N
1604379655.8,286047002.6,N
1604379675.6,286047000.1,N
1604379695.4,286047002.3,N
1604379715.3,286047002.6,N
1604379735.1,286047000.3,N
1604379755.9,286047000.6,N
1604379775.7,286047002.7,N
1604379795.5,286047002.2,N
1604379815.4,286047001.5,N
1604379835.2,286047002.3,N
1604379855.0,286047004.1,N
1604379856.0,286047004.1,N
1604379875.8,286047002.1,N
1604379895.6,286047002.8,N
1604379915.5,286047001.3,N
1604379935.3,286047002.6,N
1604379955.1,286047002.4,N
1604379975.9,286047001.9,N
1604379995.7,286047002.5,N
1604380015.6,286047002.4,N
1604380035.4,286046999.8,N
1604380055.2,286047000.5,N
1604380075.1,286047002.4,N
1604380076.0,286047002.4,N
1604380095.8,286047001.9,N
1604380115.6,286046999.8,N
1604380135.5,286046999.0,N
1604380155.3,286047000.9,N
1604380175.2,286047000.9,N
1604380195.9,286047000.5,N
1604380215.7,286047002.3,N
1604380235.6,286047002.7,N
1604380255.4,286047002.8,N
1604380275.3,286047002.0,N
1604380295.1,286047003.9,Y
1604380296.0,286047003.9,P
1604380315.8,286047002.1,N
1604380335.7,286047000.8,N
1604380355.5,286046998.2,N
1604380375.3,286046998.1,N
1604380395.2,286046999.1,N
1604380415.0,286047000.3,N
1604380415.9,286047000.3,N
1604380435.8,286046999.8,N
1604380455.6,286047001.0,N
1604380475.4,286047001.0,N
1604380495.3,286046999.9,N
1604380515.1,286047000.4,N
1604380535.9,286046999.7,N
1604380555.7,286047002.0,N
1604380575.5,286047000.1,N
1604380595.4,286047000.9,N
1604380615.2,286047001.2,N
1604380635.0,286046998.2,N
1604380635.9,286046998.2,N
1604380655.8,286047000.9,N
1604380675.6,286047000.2,N
1604380695.5,286047000.5,N
1604380715.3,286046999.9,N
1604380735.1,286047000.2,N
1604380755.9,286046998.2,N
1604380775.7,286047000.2,N
1604380795.5,286046999.8,N
1604380815.4,286046999.9,N
1604380835.2,286046999.7,N
1604380855.1,286047002.3,N
1604380856.0,286047002.3,N
1604380875.8,286047002.1,N
1604380895.6,286047001.5,N
1604380915.5,286047001.5,N
1604380935.3,286047002.8,N
1604380955.1,286047001.5,N
1604380975.9,286047004.4,Y
1604380995.7,286047001.3,P
1604381015.6,286047003.9,P
1604381035.4,286047004.4,P
1604381055.2,286047003.9,N
1604381075.1,286047004.4,N
1604381076.0,286047004.4,N
1604381095.8,286047001.6,N
1604381115.6,286047002.8,N
1604381135.5,286047002.0,N
1604381155.3,286047001.5,N
1604381175.2,286047001.8,N
1604381195.9,286047000.3,N
1604381215.7,286047000.3,N
1604381235.6,286047000.0,N
1604381255.4,286047000.5,N
1604381275.2,286047002.3,N
1604381295.1,286047002.6,N
1604381296.0,286047002.6,N
1604381315.8,286047000.6,N
1604381335.7,286046999.0,N
1604381355.5,286047000.8,N
1604381375.3,286046998.6,N
1604381395.2,286047001.2,N
1604381415.0,286046998.2,N
1604381415.9,286046998.2,N
1604381435.8,286047000.2,N
1604381455.6,286047002.7,N
1604381475.4,286047002.6,N
1604381495.3,286047000.0,N
1604381515.1,286047000.5,N
1604381535.9,286047000.8,N
1604381555.7,286047000.1,N
1604381575.5,286047000.6,N
1604381595.4,286047000.7,N
1604381615.2,286047001.2,N
1604381635.0,286046998.4,N
1604381635.9,286046998.4,N
1604381655.8,286047001.2,N
1604381675.6,286046998.1,N
1604381695.5,286047000.6,N
1604381715.3,286046998.7,N
1604381735.1,286046999.4,N
1604381755.9,286046999.0,N
1604381775.7,286046999.1,N
1604381825.6,286047000.0,E
1604381835.5,286047002.8,N
1604381855.3,286047002.4,P
1604381875.2,286047002.6,P
1604381895.0,286047002.7,Y
1604381895.9,286047002.7,P
1604381915.8,286046999.1,P
1604381935.6,286046997.7,N
1604381955.4,286046997.3,N
1604381975.3,286046997.3,N
1604381995.1,286046997.1,N
1604382015.9,286046996.5,N
1604382035.7,286046997.4,N
1604382055.5,286046996.8,N
1604382075.4,286046997.0,N
1604382095.2,286046997.0,N
1604382115.0,286046998.6,N
1604382115.9,286046998.6,N
1604382135.8,286046999.1,N
1604382155.6,286046997.2,N
1604382175.5,286046997.2,N
1604382195.3,286046997.1,N
1604382215.1,286046997.2,N
1604382235.9,286046995.8,N
1604382255.7,286046997.4,N
1604382275.5,286046997.9,N
1604382295.4,286046995.3,N
1604382315.2,286046998.0,N
1604382335.1,286046995.2,N
1604382336.0,286046995.2,N
1604382355.8,286046997.5,N
1604382375.6,286046997.8,N
1604382395.5,286046995.0,N
1604382415.3,286046996.2,N
1604382435.2,286046995.7,N
1604382455.9,286046995.6,N
1604382475.7,286046994.0,Y
1604382495.6,286046996.5,P
1604382515.4,286046999.0,P
1604382535.2,286046998.1,N
1604382555.1,286047001.0,N
1604382556.0,286047001.0,N
1604382575.8,286046998.7,N
1604382595.7,286046997.2,N
1604382615.5,286046997.7,N
1604382635.3,286046997.6,N
1604382655.2,286046997.4,N
1604382675.0,286046994.9,Y
1604382675.9,286046994.9,P
1604382695.8,286046999.5,N
1604382715.6,286046999.2,N
1604382735.4,286046999.0,N
1604382755.3,286046996.5,N
1604382775.1,286046998.6,N
1604382795.9,286046998.8,N
1604382815.7,286046998.3,N
1604382835.5,286046999.3,N
1604382855.4,286046998.1,N
1604382875.2,286047000.6,N
1604382895.0,286046998.7,N
1604382895.9,286046998.7,N
1604382915.8,286046998.2,N
1604382935.6,286046998.1,N
1604382955.5,286046998.1,N
1604382975.3,286046998.3,N
1604382995.1,286046998.6,N
1604383015.9,286046999.2,N
1604383035.7,286046996.5,Y
1604383055.6,286047000.7,P
1604383075.4,286046998.6,N
1604383095.2,286046998.3,N
1604383115.1,286046998.3,N
1604383116.0,286046998.3,N
1604383135.8,286047001.2,N
1604383155.6,286046998.3,N
1604383175.5,286047000.7,N
1604383195.3,286047000.7,N
